TAM3533 SBVT-SBRJ

Flight info

Callsign TAM3533
Flight time 0h 57m
Altitude 30000
Route MABSI UZ44 MCA
Aircraft A320/M-SDE3FGHIRWY/LB1

Departure

Time 2026-04-26 19:12
Airport Eurico de Aguiar Salles International Airport (SBVT)

Arrival

Time 2026-04-26 20:10
Airport Santos Dumont Airport (SBRJ)
Time Latitude Longitude Altitude Speed Heading
2026-04-26 18:53 -20.26535 -40.28171 18 ft 0 kts 262°
2026-04-26 19:06 -20.26535 -40.28170 18 ft 1 kts 262°
2026-04-26 19:06 -20.26532 -40.28153 19 ft 3 kts 257°
2026-04-26 19:06 -20.26527 -40.28133 20 ft 3 kts 247°
2026-04-26 19:06 -20.26518 -40.28114 19 ft 3 kts 227°
2026-04-26 19:07 -20.26504 -40.28102 20 ft 3 kts 188°
2026-04-26 19:07 -20.26496 -40.28102 19 ft 0 kts 172°
2026-04-26 19:09 -20.26497 -40.28101 18 ft 1 kts 168°
2026-04-26 19:10 -20.26532 -40.28060 18 ft 12 kts 131°
2026-04-26 19:10 -20.26599 -40.28014 18 ft 11 kts 135°
2026-04-26 19:10 -20.26609 -40.27960 18 ft 0 kts 83°
2026-04-26 19:11 -20.26606 -40.27938 18 ft 7 kts 77°
2026-04-26 19:11 -20.26582 -40.27871 17 ft 10 kts 56°
2026-04-26 19:11 -20.26542 -40.27857 17 ft 6 kts 357°
2026-04-26 19:11 -20.26496 -40.27863 17 ft 7 kts 351°
2026-04-26 19:12 -20.26346 -40.27883 20 ft 53 kts 353°
2026-04-26 19:12 -20.25743 -40.27972 25 ft 119 kts 352°
2026-04-26 19:12 -20.24753 -40.28124 160 ft 157 kts 355°
2026-04-26 19:12 -20.23680 -40.28244 821 ft 156 kts
2026-04-26 19:13 -20.22656 -40.27876 1424 ft 160 kts 39°
2026-04-26 19:13 -20.21765 -40.27090 1776 ft 176 kts 43°
2026-04-26 19:13 -20.20762 -40.26198 2011 ft 199 kts 41°
2026-04-26 19:13 -20.19644 -40.25206 2309 ft 217 kts 39°
2026-04-26 19:14 -20.18866 -40.24520 2627 ft 222 kts 39°
2026-04-26 19:14 -20.17247 -40.23105 3539 ft 228 kts 39°
2026-04-26 19:14 -20.16450 -40.22353 3910 ft 238 kts 49°
2026-04-26 19:14 -20.15888 -40.21323 4127 ft 253 kts 74°
2026-04-26 19:15 -20.16538 -40.18265 4955 ft 275 kts 135°
2026-04-26 19:15 -20.18158 -40.17227 5725 ft 275 kts 167°
2026-04-26 19:15 -20.19431 -40.17016 6306 ft 274 kts 178°
2026-04-26 19:15 -20.21966 -40.17018 7407 ft 275 kts 182°
2026-04-26 19:16 -20.23257 -40.17048 7995 ft 275 kts 180°
2026-04-26 19:16 -20.25161 -40.17032 8737 ft 279 kts 177°
2026-04-26 19:16 -20.27113 -40.16919 9514 ft 282 kts 174°
2026-04-26 19:16 -20.29084 -40.16721 10184 ft 288 kts 173°
2026-04-26 19:17 -20.31155 -40.16459 10386 ft 311 kts 172°
2026-04-26 19:17 -20.33382 -40.16138 10542 ft 334 kts 171°
2026-04-26 19:17 -20.35719 -40.15786 11015 ft 343 kts 171°
2026-04-26 19:17 -20.38097 -40.15422 11618 ft 347 kts 172°
2026-04-26 19:18 -20.40503 -40.15052 12222 ft 352 kts 172°
2026-04-26 19:18 -20.42962 -40.14837 12763 ft 357 kts 180°
2026-04-26 19:18 -20.45457 -40.14809 13387 ft 359 kts 180°
2026-04-26 19:18 -20.47975 -40.14783 13919 ft 364 kts 180°
2026-04-26 19:19 -20.50528 -40.14760 14379 ft 369 kts 181°
2026-04-26 19:19 -20.53054 -40.15066 14834 ft 372 kts 194°
2026-04-26 19:19 -20.55501 -40.15976 15307 ft 374 kts 207°
2026-04-26 19:19 -20.57707 -40.17454 15806 ft 376 kts 220°
2026-04-26 19:20 -20.59571 -40.19414 16291 ft 378 kts 230°
2026-04-26 19:20 -20.60724 -40.20818 16635 ft 379 kts 230°
2026-04-26 19:20 -20.63063 -40.23667 17275 ft 384 kts 230°
2026-04-26 19:20 -20.64829 -40.25822 17793 ft 386 kts 230°
2026-04-26 19:21 -20.66600 -40.27984 18275 ft 389 kts 230°
2026-04-26 19:21 -20.68393 -40.30166 18674 ft 391 kts 230°
2026-04-26 19:21 -20.70196 -40.32358 19076 ft 394 kts 230°
2026-04-26 19:21 -20.72009 -40.34566 19465 ft 397 kts 230°
2026-04-26 19:22 -20.73838 -40.36793 19854 ft 400 kts 230°
2026-04-26 19:22 -20.75676 -40.39035 20234 ft 403 kts 230°
2026-04-26 19:22 -20.77529 -40.41296 20627 ft 405 kts 230°
2026-04-26 19:22 -20.79366 -40.43537 21010 ft 408 kts 230°
2026-04-26 19:23 -20.81240 -40.45826 21378 ft 411 kts 230°
2026-04-26 19:23 -20.83128 -40.48132 21747 ft 413 kts 230°
2026-04-26 19:23 -20.85027 -40.50453 22127 ft 416 kts 230°
2026-04-26 19:23 -20.86934 -40.52784 22488 ft 418 kts 230°
2026-04-26 19:24 -20.88855 -40.55134 22850 ft 421 kts 230°
2026-04-26 19:24 -20.90937 -40.57359 23200 ft 425 kts 221°
2026-04-26 19:24 -20.95663 -40.61259 23837 ft 431 kts 219°
2026-04-26 19:25 -20.98045 -40.63201 24152 ft 432 kts 219°
2026-04-26 19:25 -20.99637 -40.64498 24365 ft 433 kts 219°
2026-04-26 19:25 -21.02848 -40.67119 24791 ft 435 kts 219°
2026-04-26 19:25 -21.05225 -40.69066 25120 ft 436 kts 219°
2026-04-26 19:26 -21.07636 -40.71045 25429 ft 437 kts 219°
2026-04-26 19:26 -21.10056 -40.73029 25748 ft 438 kts 219°
2026-04-26 19:26 -21.12484 -40.75018 26058 ft 439 kts 219°
2026-04-26 19:26 -21.14914 -40.77009 26374 ft 441 kts 219°
2026-04-26 19:27 -21.17354 -40.79011 26680 ft 442 kts 219°
2026-04-26 19:27 -21.19799 -40.81025 26989 ft 444 kts 219°
2026-04-26 19:27 -21.22250 -40.83046 27305 ft 445 kts 219°
2026-04-26 19:27 -21.24710 -40.85071 27634 ft 446 kts 219°
2026-04-26 19:28 -21.27170 -40.87095 27937 ft 447 kts 219°
2026-04-26 19:28 -21.29641 -40.89128 28224 ft 448 kts 219°
2026-04-26 19:28 -21.32120 -40.91169 28519 ft 450 kts 219°
2026-04-26 19:28 -21.34602 -40.93216 28787 ft 451 kts 219°
2026-04-26 19:29 -21.37096 -40.95274 29051 ft 453 kts 219°
2026-04-26 19:29 -21.39595 -40.97337 29308 ft 454 kts 219°
2026-04-26 19:29 -21.42104 -40.99406 29577 ft 455 kts 219°
2026-04-26 19:29 -21.44623 -41.01481 29852 ft 457 kts 220°
2026-04-26 19:30 -21.49601 -41.05574 29938 ft 444 kts 220°
2026-04-26 19:30 -21.53658 -41.08918 29931 ft 440 kts 220°
2026-04-26 19:31 -21.59321 -41.13602 29936 ft 441 kts 220°
2026-04-26 19:31 -21.64180 -41.17624 29939 ft 440 kts 220°
2026-04-26 19:32 -21.69021 -41.21636 29933 ft 439 kts 220°
2026-04-26 19:32 -21.73857 -41.25642 29891 ft 439 kts 220°
2026-04-26 19:33 -21.78667 -41.29682 29890 ft 438 kts 220°
2026-04-26 19:33 -21.83465 -41.33743 29938 ft 438 kts 221°
2026-04-26 19:34 -21.88273 -41.37813 29939 ft 450 kts 220°
2026-04-26 19:34 -21.93172 -41.41942 29934 ft 441 kts 220°
2026-04-26 19:35 -21.97988 -41.45995 29933 ft 439 kts 220°
2026-04-26 19:35 -22.02788 -41.50059 29934 ft 438 kts 221°
2026-04-26 19:36 -22.06781 -41.53438 29932 ft 438 kts 220°
2026-04-26 19:36 -22.12042 -41.58452 29917 ft 415 kts 240°
2026-04-26 19:37 -22.13148 -41.61218 29924 ft 394 kts 257°
2026-04-26 19:37 -22.13510 -41.64073 29913 ft 376 kts 269°
2026-04-26 19:37 -22.13344 -41.66793 29915 ft 361 kts 279°
2026-04-26 19:37 -22.12700 -41.69346 29914 ft 348 kts 290°
2026-04-26 19:38 -22.11589 -41.71643 29913 ft 345 kts 302°
2026-04-26 19:38 -22.10032 -41.73615 29921 ft 348 kts 315°
2026-04-26 19:38 -22.08082 -41.75175 29928 ft 352 kts 327°
2026-04-26 19:38 -22.05823 -41.76242 29933 ft 358 kts 340°
2026-04-26 19:39 -22.03356 -41.76747 29935 ft 364 kts 353°
2026-04-26 19:39 -22.00813 -41.76634 29940 ft 370 kts
2026-04-26 19:39 -21.98319 -41.75873 29944 ft 376 kts 20°
2026-04-26 19:39 -21.96005 -41.74506 29947 ft 381 kts 30°
2026-04-26 19:40 -21.91748 -41.71121 29950 ft 384 kts 36°
2026-04-26 19:40 -21.87633 -41.67431 29939 ft 384 kts 36°
2026-04-26 19:41 -21.83864 -41.63348 29936 ft 389 kts 56°
2026-04-26 19:41 -21.82662 -41.60732 29935 ft 391 kts 70°
2026-04-26 19:41 -21.82199 -41.58858 29925 ft 392 kts 81°
2026-04-26 19:42 -21.82155 -41.54955 29916 ft 392 kts 102°
2026-04-26 19:42 -21.82978 -41.52138 29941 ft 400 kts 119°
2026-04-26 19:42 -21.84568 -41.49666 29939 ft 406 kts 138°
2026-04-26 19:42 -21.86827 -41.47845 29940 ft 409 kts 158°
2026-04-26 19:43 -21.89522 -41.46900 29939 ft 410 kts 176°
2026-04-26 19:43 -21.92365 -41.46936 29939 ft 411 kts 195°
2026-04-26 19:43 -21.95030 -41.47910 29938 ft 412 kts 212°
2026-04-26 19:43 -21.97361 -41.49710 29939 ft 415 kts 226°
2026-04-26 19:44 -22.01548 -41.54198 29939 ft 432 kts 227°
2026-04-26 19:44 -22.05816 -41.58808 29929 ft 435 kts 227°
2026-04-26 19:45 -22.07956 -41.61119 29786 ft 436 kts 227°
2026-04-26 19:45 -22.10104 -41.63432 29513 ft 436 kts 227°
2026-04-26 19:45 -22.12253 -41.65744 29241 ft 437 kts 227°
2026-04-26 19:45 -22.14405 -41.68060 28968 ft 436 kts 227°
2026-04-26 19:46 -22.16549 -41.70370 28704 ft 434 kts 227°
2026-04-26 19:46 -22.18686 -41.72673 28442 ft 433 kts 227°
2026-04-26 19:46 -22.20809 -41.74965 28192 ft 431 kts 227°
2026-04-26 19:46 -22.22922 -41.77249 27935 ft 429 kts 227°
2026-04-26 19:47 -22.25023 -41.79522 27672 ft 428 kts 227°
2026-04-26 19:47 -22.26412 -41.81026 27442 ft 425 kts 227°
2026-04-26 19:47 -22.29160 -41.83993 26674 ft 420 kts 227°
2026-04-26 19:47 -22.31216 -41.86215 26096 ft 417 kts 227°
2026-04-26 19:48 -22.33254 -41.88418 25527 ft 414 kts 227°
2026-04-26 19:48 -22.35285 -41.90615 24970 ft 411 kts 227°
2026-04-26 19:48 -22.37296 -41.92792 24412 ft 408 kts 227°
2026-04-26 19:48 -22.39300 -41.94965 23873 ft 406 kts 228°
2026-04-26 19:49 -22.41290 -41.97125 23308 ft 403 kts 228°
2026-04-26 19:49 -22.43262 -41.99268 22776 ft 399 kts 228°
2026-04-26 19:49 -22.45210 -42.01385 22297 ft 394 kts 228°
2026-04-26 19:49 -22.47103 -42.03440 21854 ft 389 kts 228°
2026-04-26 19:50 -22.49006 -42.05504 21396 ft 385 kts 228°
2026-04-26 19:50 -22.50885 -42.07545 20954 ft 380 kts 228°
2026-04-26 19:50 -22.52739 -42.09562 20498 ft 376 kts 228°
2026-04-26 19:50 -22.54578 -42.11565 20058 ft 374 kts 228°
2026-04-26 19:51 -22.56402 -42.13552 19605 ft 371 kts 228°
2026-04-26 19:51 -22.58220 -42.15529 19139 ft 369 kts 227°
2026-04-26 19:51 -22.60028 -42.17496 18677 ft 368 kts 227°
2026-04-26 19:51 -22.61831 -42.19459 18228 ft 367 kts 227°
2026-04-26 19:52 -22.63628 -42.21419 17702 ft 366 kts 227°
2026-04-26 19:52 -22.65416 -42.23373 17221 ft 363 kts 227°
2026-04-26 19:52 -22.67190 -42.25307 16747 ft 361 kts 227°
2026-04-26 19:52 -22.68958 -42.27237 16272 ft 360 kts 227°
2026-04-26 19:53 -22.70593 -42.29022 15818 ft 358 kts 227°
2026-04-26 19:53 -22.72347 -42.30936 15346 ft 357 kts 227°
2026-04-26 19:53 -22.74092 -42.32841 14876 ft 356 kts 227°
2026-04-26 19:53 -22.75809 -42.34718 14409 ft 355 kts 226°
2026-04-26 19:54 -22.77546 -42.36613 13935 ft 353 kts 226°
2026-04-26 19:54 -22.79272 -42.38496 13428 ft 352 kts 227°
2026-04-26 19:54 -22.80672 -42.40612 13107 ft 341 kts 246°
2026-04-26 19:54 -22.81252 -42.43067 12681 ft 337 kts 266°
2026-04-26 19:55 -22.81433 -42.45589 12159 ft 335 kts 258°
2026-04-26 19:55 -22.82317 -42.47904 11675 ft 334 kts 236°
2026-04-26 19:55 -22.83965 -42.49670 11199 ft 336 kts 214°
2026-04-26 19:55 -22.86131 -42.50615 10725 ft 338 kts 192°
2026-04-26 19:56 -22.88463 -42.50923 10286 ft 337 kts 187°
2026-04-26 19:56 -22.90751 -42.51148 10166 ft 324 kts 186°
2026-04-26 19:56 -22.92963 -42.51354 10057 ft 313 kts 186°
2026-04-26 19:56 -22.95094 -42.51545 9937 ft 302 kts 186°
2026-04-26 19:57 -22.97157 -42.51727 9735 ft 295 kts 186°
2026-04-26 19:57 -22.99182 -42.51989 9384 ft 291 kts 198°
2026-04-26 19:57 -23.01010 -42.52860 9007 ft 287 kts 210°
2026-04-26 19:57 -23.02751 -42.53918 8627 ft 286 kts 211°
2026-04-26 19:58 -23.04471 -42.54985 8240 ft 285 kts 211°
2026-04-26 19:58 -23.06188 -42.56054 7851 ft 284 kts 212°
2026-04-26 19:58 -23.07901 -42.57120 7468 ft 283 kts 211°
2026-04-26 19:58 -23.09576 -42.58162 7100 ft 282 kts 212°
2026-04-26 19:59 -23.11276 -42.59220 6716 ft 281 kts 212°
2026-04-26 19:59 -23.12952 -42.60298 6350 ft 278 kts 218°
2026-04-26 19:59 -23.14196 -42.61845 5957 ft 271 kts 246°
2026-04-26 19:59 -23.14614 -42.63807 5539 ft 266 kts 274°
2026-04-26 20:00 -23.14118 -42.65708 5141 ft 262 kts 302°
2026-04-26 20:00 -23.13100 -42.67192 4742 ft 262 kts 311°
2026-04-26 20:00 -23.11912 -42.68692 4303 ft 263 kts 308°
2026-04-26 20:00 -23.10854 -42.70307 3969 ft 261 kts 305°
2026-04-26 20:01 -23.09830 -42.71943 3925 ft 263 kts 304°
2026-04-26 20:01 -23.08789 -42.73580 3926 ft 263 kts 306°
2026-04-26 20:01 -23.07749 -42.75185 3925 ft 263 kts 306°
2026-04-26 20:01 -23.06693 -42.76809 3926 ft 264 kts 306°
2026-04-26 20:02 -23.05629 -42.78436 3923 ft 265 kts 306°
2026-04-26 20:02 -23.04570 -42.80077 3923 ft 266 kts 306°
2026-04-26 20:02 -23.03506 -42.81732 3922 ft 266 kts 306°
2026-04-26 20:02 -23.03150 -42.82289 3925 ft 267 kts 306°
2026-04-26 20:03 -23.01739 -42.84494 3882 ft 269 kts 306°
2026-04-26 20:03 -23.00315 -42.86724 3917 ft 269 kts 306°
2026-04-26 20:03 -22.99610 -42.87828 3917 ft 265 kts 306°
2026-04-26 20:03 -22.98572 -42.89403 3837 ft 249 kts 312°
2026-04-26 20:04 -22.97387 -42.90557 3672 ft 239 kts 321°
2026-04-26 20:04 -22.96134 -42.91693 3624 ft 236 kts 321°
2026-04-26 20:04 -22.94975 -42.92989 3575 ft 242 kts 309°
2026-04-26 20:04 -22.93931 -42.94425 3519 ft 243 kts 309°
2026-04-26 20:05 -22.92876 -42.95862 3466 ft 243 kts 309°
2026-04-26 20:05 -22.91872 -42.97256 3409 ft 232 kts 308°
2026-04-26 20:05 -22.90945 -42.98640 3320 ft 223 kts 307°
2026-04-26 20:05 -22.90055 -43.00003 3079 ft 222 kts 306°
2026-04-26 20:06 -22.89165 -43.01368 2805 ft 222 kts 306°
2026-04-26 20:06 -22.88358 -43.02604 2538 ft 215 kts 306°
2026-04-26 20:06 -22.87570 -43.03940 2268 ft 206 kts 293°
2026-04-26 20:06 -22.87193 -43.05395 1995 ft 195 kts 285°
2026-04-26 20:07 -22.86876 -43.06763 1764 ft 178 kts 285°
2026-04-26 20:07 -22.86584 -43.08015 1500 ft 166 kts 285°
2026-04-26 20:07 -22.86307 -43.09188 1276 ft 155 kts 284°
2026-04-26 20:07 -22.86040 -43.10316 1086 ft 153 kts 284°
2026-04-26 20:08 -22.85775 -43.11431 889 ft 154 kts 285°
2026-04-26 20:08 -22.85534 -43.12549 749 ft 152 kts 279°
2026-04-26 20:08 -22.85489 -43.13680 803 ft 150 kts 261°
2026-04-26 20:08 -22.85843 -43.14737 787 ft 149 kts 237°
2026-04-26 20:09 -22.86578 -43.15490 691 ft 144 kts 207°
2026-04-26 20:09 -22.87470 -43.15953 497 ft 139 kts 199°
2026-04-26 20:09 -22.88385 -43.16237 379 ft 137 kts 191°
2026-04-26 20:09 -22.89305 -43.16360 214 ft 133 kts 182°
2026-04-26 20:10 -22.90232 -43.16341 82 ft 133 kts 176°
2026-04-26 20:10 -22.91111 -43.16280 24 ft 114 kts 176°
2026-04-26 20:10 -22.91519 -43.16253 18 ft 20 kts 176°
2026-04-26 20:10 -22.91594 -43.16296 18 ft 12 kts 285°
2026-04-26 20:11 -22.91542 -43.16358 19 ft 10 kts 316°
2026-04-26 20:11 -22.91503 -43.16398 22 ft 5 kts 317°
2026-04-26 20:11 -22.91478 -43.16423 22 ft 8 kts 318°
2026-04-26 20:12 -22.91375 -43.16505 23 ft 7 kts 352°
2026-04-26 20:12 -22.91373 -43.16505 23 ft 0 kts 352°
2026-04-26 20:12 -22.91359 -43.16507 23 ft 7 kts 352°
2026-04-26 20:12 -22.91273 -43.16513 23 ft 14 kts 358°
2026-04-26 20:13 -22.91248 -43.16523 23 ft 6 kts 310°
2026-04-26 20:13 -22.91242 -43.16574 23 ft 2 kts 268°
2026-04-26 20:13 -22.91242 -43.16576 23 ft 2 kts 268°
2026-04-26 20:13 -22.91243 -43.16581 23 ft 0 kts 267°